Location: Marse
(42.1502°N, 110.9866°W)
Time: 02:57:49
(UTC+00:00)

CAS-4A - Visible Passes

Search period start: 02 July 2022 00:00
Search period end: 12 July 2022 00:00
Orbit: 523 x 536 km, 43.0° (Epoch: 01 July)

Date Brightness Start Highest point End Pass type
(mag) Time Alt. Az. Time Alt. Az. Time Alt. Az.
02 Jul ? 08:09:31 11° E 08:09:31 11° E 08:09:42 10° E visible
02 Jul ? 09:44:42 39° WSW 09:46:06 73° SSE 09:50:08 10° E visible
03 Jul ? 07:57:14 10° E 07:57:14 10° E 07:57:18 10° E visible
03 Jul ? 09:32:24 45° WSW 09:33:34 81° SSE 09:37:36 10° E visible
03 Jul ? 11:09:34 10° W 11:13:38 79° N 11:17:41 10° E visible
04 Jul ? 09:20:07 53° WSW 09:21:01 88° S 09:25:04 10° E visible
04 Jul ? 10:57:03 10° W 11:01:06 81° N 11:05:10 10° E visible
05 Jul ? 09:07:50 62° W 09:08:28 87° N 09:12:31 10° E visible
05 Jul ? 10:44:32 10° W 10:48:35 85° NNE 10:52:38 10° E visible
06 Jul ? 08:55:36 73° WNW 08:55:56 82° N 08:59:59 10° E visible
06 Jul ? 10:31:59 10° W 10:36:02 89° SSW 10:40:05 10° ESE visible
07 Jul ? 08:43:27 79° N 08:43:27 79° N 08:47:26 10° E visible
07 Jul ? 10:19:27 10° W 10:23:29 83° SSW 10:27:31 10° ESE visible
08 Jul ? 08:31:28 61° ENE 08:31:28 61° ENE 08:34:54 10° E visible
08 Jul ? 10:06:54 10° W 10:10:55 75° SSW 10:14:57 10° ESE visible
09 Jul ? 08:19:50 37° E 08:19:50 37° E 08:22:22 10° E visible
09 Jul ? 09:55:04 15° W 09:58:20 67° SSW 10:02:21 10° ESE visible
10 Jul ? 04:42:49 10° SSW 04:43:53 16° SSW 04:43:53 16° SSW visible
10 Jul ? 08:08:52 17° E 08:08:52 17° E 08:09:48 10° E visible
10 Jul ? 09:44:11 33° W 09:45:46 59° SSW 09:49:43 10° ESE visible
10 Jul ? 11:22:38 10° WSW 11:25:15 17° SW 11:27:51 10° S visible
11 Jul ? 04:29:58 10° SSW 04:33:26 29° SSE 04:34:53 22° ESE visible
11 Jul ? 06:09:07 10° WSW 06:10:14 18° WSW 06:10:14 18° WSW visible
11 Jul ? 09:34:27 35° SSE 09:34:27 35° SSE 09:37:05 10° SE visible
11 Jul ? 11:10:29 10° WSW 11:12:34 14° SW 11:14:38 10° S visible
